Location: Boiro
(42.6475°N, 8.8834°W)
Time: 18:54:31
(UTC+01:00)

Tiros 1 - Pass Details

Date: 06 December 2021
Orbit: 630 x 663 km, 48.4° (Epoch: 20 January)

Event Time Altitude Azimuth Distance (km) Brightness Sun altitude
Rises 17:12:52 0° 180° (S) 2,899 11.1 6.6°
Reaches altitude 10° 17:17:15 10° 141° (SE) 2,002 9.7 5.9°
Maximum altitude 17:18:07 11° 130° (SE) 1,973 9.6 5.8°
Drops below altitude 10° 17:18:59 10° 119° (ESE) 2,007 9.5 5.7°
Sets 17:23:24 0° 80° (E) 2,929 10.0 5.1°
